{"data":{"norad_id":63363,"intl_designator":"2025-063A","name":"STARLINK-32840","alt_names":[],"object_type":"PAYLOAD","status":"ACTIVE","operator":null,"country":"US","launch_date":"2025-03-26","launch_site_code":"AFWTR","launch_vehicle":null,"mission":null,"orbit_class":"UNKNOWN","rcs_meters":null,"size_class":null,"mass_kg":null,"dimensions":null,"purposes":["comms"],"wikipedia_slug":null,"has_3d_model":false,"image_url":null,"decayed_at":null,"tle_current":{"epoch":"2026-09-20T07:16:53.807520Z","epoch_age_seconds":175856,"freshness":"STALE","line1":"1 63363U 25063A   26263.30340055  .00015811  00000+0  47820-3 0  9995","line2":"2 63363  53.1567 222.2779 0001184  85.1172 274.9966 15.34393175 84623","mean_motion":15.34393175,"eccentricity":0.0001184,"inclination_deg":53.1567,"raan_deg":222.2779,"arg_perigee_deg":85.1172,"mean_anomaly_deg":274.9966,"bstar":0.0004782,"rev_number":8462,"period_min":93.848175517334,"perigee_km":461.91356773437,"apogee_km":463.53348350683,"semimajor_km":6840.8605256206,"source":"CELESTRAK","updated_at":"2026-09-21T09:00:34.971791Z"}}}